Location: Linton
(52.0943°N, 0.2848°E)
Time: 12:18:51
(UTC+00:00)

OTV 5 (USA 277) - Visible Passes

Search period start: 19 February 2018 00:00
Search period end: 01 March 2018 00:00
Orbit: 404 x 417 km, 43.0° (Epoch: 07 September)

Date Brightness Start Highest point End Pass type
(mag) Time Alt. Az. Time Alt. Az. Time Alt. Az.
24 Feb ? 05:37:12 10° SSW 05:39:01 14° SSE 05:40:50 10° SE visible
25 Feb ? 04:47:48 12° S 04:48:10 12° SSE 04:49:31 10° SE visible
26 Feb ? 05:31:51 11° SW 05:33:48 17° S 05:36:01 10° SE visible
27 Feb ? 04:43:07 16° SSE 04:43:07 16° SSE 04:45:00 10° SE visible
27 Feb ? 06:17:25 10° SW 06:19:29 16° S 06:21:33 10° SSE visible
28 Feb ? 05:27:08 13° SW 05:28:37 17° S 05:30:49 10° SE visible
